Current weather by "City, St" or "zip code"  
 

Current Conditions: Gadsden, Gadsden Municipal Airport, AL

Fair


90.0 F

Last Updated on Jul 3 2022, 1:56 pm CDT
Humidity: 56%
Wind Speed: W 9.2 mph
Barometer 30.06 in
Dewpoint: 72.0 F
Visibility: 10.00 mi
Precip: --
Heat Index: 97 F
Wind Chill: NA
Current conditions at:

Gadsden, Gadsden Municipal Airport, AL (KGAD)

Lat: 33.96667 Lon: 86.08333

Local Radar Image active severe weather and emergency alerts image image weather storm and storm spotter reports image weather observation monitoring service image
Local
Radar
Active
Alerts
Storm Reports Obs
Monitoring

Sign-up For Email & Text Message Weather Alert Notification Services



Advertise Here

Observation History for Gadsden, Gadsden Municipal Airport, AL


Time Wind
(mph)
Vis
(mi)
Weather Precip (in) Temperature (F) Relative
Humidity
Wind
Chill
(F)
Heat
Index
(F)
Pressure
Air Dwpt altimeter
(in)
sea level
(mb)
Rmks
1:56 pm CDT W 9.2 10.00 Fair -- 90.0 72.0 56% NA 97 30.06 1017.5
12:56 pm CDT 6.9 10.00 Fair -- 88.0 72.0 59% NA 95 30.09 1018.6
11:56 am CDT W 8.1 10.00 Overcast -- 87.0 73.9 65% NA 95 30.11 1019.4
10:56 am CDT SW 6.9 10.00 Mostly Cloudy -- 85.0 73.0 68% NA 92 30.12 1019.7
9:56 am CDT 6.9 10.00 Mostly Cloudy -- 83.0 73.9 74% NA 90 30.12 1019.7
8:56 am CDT 3.5 10.00 A Few Clouds -- 80.0 73.9 82% NA 84 30.12 1019.7
7:56 am CDT N 0.0 4.00 Fog/Mist -- 77.0 73.9 90% NA NA 30.11 1019.6
6:56 am CDT N 0.0 10.00 Fair -- 75.0 73.0 94% NA NA 30.10 1019.3
5:56 am CDT N 0.0 9.00 Mostly Cloudy 00.01 73.0 73.0 100% NA NA 30.10 1019.0
4:56 am CDT SW 3.5 10.00 Overcast -- 73.0 73.0 100% NA NA 30.08 1018.2
3:56 am CDT W 3.5 10.00 Fair -- 72.0 71.1 97% NA NA 30.06 1017.6
2:56 am CDT SW 3.5 10.00 Fair -- 73.0 72.0 96% NA NA 30.04 1017.1
1:56 am CDT N 0.0 10.00 Fair -- 73.0 72.0 96% NA NA 30.03 1016.9
12:56 am CDT N 0.0 10.00 Fair -- 75.0 73.0 94% NA NA 30.04 1017.0
11:56 pm CDT N 0.0 10.00 Fair -- 75.0 73.9 96% NA NA 30.05 1017.3
10:56 pm CDT N 0.0 10.00 Fair -- 78.0 75.0 90% NA NA 30.04 1017.1
9:56 pm CDT N 0.0 10.00 Fair -- 78.0 75.9 93% NA NA 30.04 1017.2
8:56 pm CDT N 0.0 10.00 A Few Clouds -- 81.0 75.9 85% NA 87 30.03 1016.9
7:56 pm CDT N 0.0 10.00 Fair -- 83.0 75.9 79% NA 91 30.02 1016.2
6:56 pm CDT N 0.0 10.00 Fair -- 85.0 75.9 75% NA 94 29.99 1015.3
5:56 pm CDT N 0.0 10.00 Fair -- 86.0 73.0 65% NA 93 29.99 1015.4
4:56 pm CDT W 5.8 10.00 A Few Clouds -- 84.0 72.0 67% NA 90 30.00 1015.7
3:56 pm CDT W 10.4 10.00 Overcast -- 83.0 73.0 72% NA 89 30.01 1016.0

Regional Weather Observation


Gadsden, Gadsden Municipal Airport, AL (KGAD)

Fair
90.0 F

Cullman Regional Folsom Field, AL (KCMD)

Partly Cloudy
90.0 F

Scottsboro Municipal Airport, AL (K4A6)

Mostly Cloudy
88.0 F

Redstone Airfield, AL (KHUA)

Partly Cloudy
91.0 F

Huntsville, Huntsville International / Jones Field, AL (KHSV)

Partly Cloudy
93.0 F

Decatur, Pryor Field, AL (KDCU)

A Few Clouds
91.0 F

Advertise Here


Advertise Here